Vertical_Velocity
-1 -2 -4 -2 -2 0 -2 -0 -0 0 -1 1 -2 -1 -0 1 -0 -1 -0 -1 0 1 0 0 0 -0 -1 -1 0 -1 -1 -1 -1 -0 -1 -1 -0 -1 -1 -1 -2 -2 0
4 -4 -4 -3 -1 -0 -2 -2 -0 1 0 2 -1 -1 2 -1 -0 -1 -0 -1 -0 -1 0 -0 0 0 1 1 1 0 -0 -1 -1 0 1 0 -1 0 -1 -0 -1 2 1
-1 -2 -4 -4 -1 -1 -2 -2 -2 -1 -0 -0 -1 1 1 1 -2 0 -0 -1 -1 -1 -0 -1 -1 -1 -0 1 0 -0 -1 -1 -0 -1 0 1 -0 -1 -0 0 -1 -1 -1
1 -1 -2 -3 -1 -2 -2 -3 -4 -3 -5 -5 1 1 -2 -2 -2 -0 -0 1 -0 -0 0 0 0 0 -0 -1 0 0 -0 -1 0 -2 0 1 1 -0 -0 0 -3 -1 0
-2 -0 -2 -2 -1 -1 -2 -2 -2 -5 -6 0 -0 -3 -1 -2 -1 -1 -2 -0 -0 -1 -0 -1 -1 -0 -1 0 -0 0 -0 -1 -1 -0 -0 -1 -1 0 -1 -0 -0 -1 -1
1 -1 -2 -1 -1 -1 -2 -1 -2 -3 0 -1 -2 -5 -3 -1 -1 -1 -0 -1 -1 -1 -0 -1 -1 -2 -1 -1 -1 -0 0 -1 -1 -2 -1 -2 -2 -2 -2 -1 -2 -0 -1
2 -1 -2 -1 -1 -1 -1 -2 -2 2 -0 -2 -3 -5 -3 -1 -1 -1 -1 -1 -1 0 -1 -1 -0 -0 -1 -1 -0 -1 -0 -1 -1 -1 -2 -1 -2 -2 1 -0 1 1 1
3 2 1 0 1 -1 0 -0 0 2 -1 -1 -5 -3 -3 -3 -2 -1 -0 -0 -2 -1 -2 -2 -1 -0 -1 -0 2 -2 -1 -0 -1 -1 -1 -0 -1 -1 -2 0 -0 0 1
0 -1 3 1 2 1 1 1 2 1 -1 -3 0 -1 -3 -3 -2 -4 -3 -3 -4 -3 -3 -3 -3 -2 -1 -1 -3 1 -2 -1 1 1 -1 -1 1 1 1 -2 -0 1 0
-1 -1 0 1 -0 1 3 1 2 2 2 0 -0 -2 -0 1 -4 -3 -2 -4 -3 -3 -3 -3 -3 -2 -1 -1 -3 -2 -1 -1 -2 0 -0 -1 -2 -2 -1 2 -1 -2 1
-2 -2 -0 1 3 3 2 2 3 2 1 1 0 1 1 -1 -0 -1 -0 1 1 -2 -2 -3 -4 -3 -3 -2 -2 -4 -1 -1 -3 -1 -2 -2 -2 0 1 1 -0 1 -0
1 1 2 1 3 2 1 2 1 3 1 1 1 1 1 0 1 0 0 0 0 0 2 3 4 1 -1 -2 -1 -3 -4 -1 -1 -1 -1 -1 -2 -1 -1 -1 1 1 -2
0 2 2 2 2 1 1 0 2 1 2 3 2 2 1 2 3 3 2 1 1 0 0 1 -1 -2 1 2 2 2 3 3 3 -0 -1 -2 -2 -1 0 1 0 -1 -1
3 0 -1 0 1 -1 -1 1 1 1 1 2 2 2 2 3 3 2 1 2 3 1 0 1 0 1 1 1 1 -0 -3 -1 1 3 3 2 0 -1 -1 0 -1 1 -2
1 2 1 -1 -0 1 0 -0 -1 -1 -0 -1 0 0 2 1 2 0 1 2 2 3 0 0 1 1 1 1 1 1 1 -1 -1 1 2 3 2 -0 0 0 -1 -1 0
0 1 1 0 2 0 1 -2 -1 -2 -2 1 1 -0 -1 1 1 1 0 1 2 1 -0 1 -0 1 2 0 3 1 2 1 1 -1 -1 3 3 2 2 -0 -1 -1 -1
0 1 1 -1 -0 -1 3 1 2 1 -1 0 0 -1 -1 -0 -0 2 3 2 2 1 1 2 1 0 -0 -1 3 -0 -1 -0 1 1 0 0 2 1 3 2 1 2 0
-2 -3 -2 -0 -0 0 -2 -1 1 0 -1 2 0 -1 1 -1 1 0 1 2 2 2 1 2 2 -0 1 -1 2 2 1 -2 -1 0 -0 2 1 3 2 1 0 1 2
1 -2 -2 -3 0 1 -0 -1 0 -0 0 1 -0 1 1 0 0 -2 -0 1 0 -1 -2 1 0 -2 -1 -2 -1 -2 3 2 3 -0 1 -0 1 2 1 3 2 -2 -2
-0 1 3 2 1 0 0 -1 -1 -0 2 1 3 2 2 1 1 -1 -1 2 2 0 2 2 -2 -1 -3 -2 -1 -1 1 0 -0 -2 -0 -1 -0 0 2 2 3 4 3
-1 1 3 2 0 0 -2 -1 -0 1 0 -0 0 -0 0 2 2 -0 -2 1 1 0 2 -0 0 -1 0 -0 -6 0 1 -0 -3 -1 1 2 -1 4 1 3 2 3 2
-1 2 2 2 1 2 2 2 -0 2 1 -0 0 -0 -1 1 -1 -2 -1 4 2 -0 1 1 1 0 1 2 -2 -2 -7 1 5 3 3 -0 3 3 1 0 0 2 2
-2 -1 0 -0 -0 0 1 0 0 -2 -0 3 2 3 2 -1 -1 0 1 -1 0 0 0 0 1 2 1 0 2 2 -4 -5 -3 2 0 2 2 1 1 2 3 4 6
-1 -4 -6 -4 -1 1 1 -1 -3 -2 -2 1 1 2 2 -3 -1 0 2 3 3 3 -1 2 3 2 -1 2 -1 1 -0 -0 -3 -5 3 3 -3 1 5 0 0 5 -1
-1 0 0 -2 -4 -5 -3 -0 2 2 0 -0 -0 1 -0 2 -0 2 2 -0 1 2 2 -1 -1 1 -2 -1 -2 1 1 1 0 -7 -5 -1 1 2 4 -2 -7 -3 2
1 1 1 0 -0 -0 -0 -1 -1 -2 -1 -1 -1 -0 0 1 1 0 0 2 2 3 1 2 1 -0 -0 -0 0 1 3 -1 -0 -3 -7 -1 -2 4 -2 -3 -1 -1 5
Height
3182 3184 3185 3187 3188 3188 3188 3187 3187 3187 3187 3186 3186 3186 3184 3183 3182 3181 3181 3179 3178 3178 3178 3179 3179 3179 3179 3180 3181 3182 3182 3182 3181 3181 3180 3180 3179 3178 3177 3176 3176 3175 3174
3183 3184 3186 3188 3189 3190 3190 3190 3189 3189 3188 3188 3188 3186 3185 3185 3184 3183 3182 3181 3181 3181 3180 3180 3180 3181 3181 3182 3183 3183 3183 3182 3182 3181 3181 3180 3179 3179 3178 3177 3176 3175 3174
3183 3184 3186 3189 3190 3191 3191 3192 3192 3191 3190 3190 3189 3188 3188 3188 3187 3185 3184 3183 3183 3183 3182 3183 3183 3183 3183 3183 3184 3184 3184 3183 3183 3183 3182 3181 3180 3179 3178 3177 3176 3175 3174
3183 3185 3187 3189 3191 3192 3192 3193 3193 3193 3193 3191 3191 3191 3191 3190 3188 3188 3187 3186 3186 3186 3185 3185 3185 3185 3186 3186 3186 3186 3185 3185 3184 3184 3183 3182 3182 3181 3179 3178 3177 3177 3176
3182 3185 3187 3189 3191 3192 3193 3194 3194 3195 3194 3194 3193 3193 3193 3191 3190 3190 3189 3189 3189 3188 3188 3188 3188 3188 3188 3188 3188 3188 3188 3187 3187 3186 3185 3184 3183 3182 3180 3179 3178 3177 3176
3182 3185 3187 3189 3191 3193 3194 3195 3195 3195 3196 3196 3195 3195 3193 3192 3192 3192 3192 3191 3192 3191 3191 3191 3191 3191 3191 3191 3190 3190 3190 3189 3189 3188 3187 3185 3184 3183 3182 3181 3180 3178 3177
3182 3184 3186 3189 3191 3193 3194 3195 3195 3196 3197 3197 3197 3196 3195 3194 3194 3194 3194 3194 3194 3194 3194 3194 3193 3193 3193 3193 3193 3192 3191 3191 3190 3189 3188 3187 3185 3184 3183 3182 3181 3179 3178
3181 3183 3185 3188 3190 3192 3194 3195 3195 3197 3197 3197 3197 3197 3196 3196 3196 3196 3196 3196 3196 3196 3196 3195 3195 3195 3195 3194 3194 3193 3192 3191 3190 3189 3188 3187 3186 3184 3183 3182 3181 3180 3178
3180 3182 3185 3187 3190 3192 3193 3194 3196 3196 3197 3197 3197 3197 3197 3197 3198 3198 3197 3197 3197 3197 3197 3196 3196 3196 3196 3195 3195 3194 3193 3192 3191 3190 3189 3188 3186 3185 3183 3181 3180 3179 3178
3178 3180 3183 3186 3188 3191 3192 3194 3195 3196 3197 3197 3197 3197 3197 3197 3198 3199 3199 3198 3198 3197 3197 3197 3197 3196 3196 3196 3195 3194 3193 3193 3191 3190 3189 3188 3187 3185 3184 3182 3180 3179 3177
3176 3178 3181 3184 3187 3189 3191 3193 3194 3195 3196 3196 3196 3197 3197 3198 3198 3198 3198 3198 3197 3197 3197 3196 3196 3196 3196 3195 3195 3194 3193 3192 3191 3190 3189 3187 3186 3185 3184 3182 3180 3178 3177
3174 3177 3179 3182 3185 3187 3189 3191 3193 3193 3194 3194 3195 3195 3196 3197 3197 3197 3197 3197 3197 3197 3196 3196 3195 3195 3194 3194 3194 3193 3192 3191 3190 3189 3188 3186 3185 3184 3183 3181 3179 3178 3176
3174 3176 3178 3181 3183 3185 3187 3189 3190 3191 3192 3192 3193 3193 3194 3195 3196 3196 3196 3196 3195 3195 3195 3195 3194 3194 3193 3193 3192 3192 3191 3190 3189 3187 3187 3186 3184 3183 3181 3180 3178 3177 3176
3173 3175 3177 3180 3182 3183 3185 3186 3187 3188 3189 3190 3190 3191 3192 3192 3193 3194 3194 3193 3193 3193 3193 3192 3192 3191 3191 3190 3190 3189 3189 3188 3187 3186 3185 3184 3183 3181 3180 3178 3177 3175 3174
3171 3173 3175 3178 3179 3181 3182 3183 3184 3185 3186 3187 3188 3188 3189 3189 3190 3190 3190 3191 3190 3190 3189 3189 3188 3188 3187 3187 3186 3185 3185 3185 3184 3183 3182 3181 3180 3179 3178 3176 3175 3173 3172
3168 3171 3172 3175 3177 3178 3180 3181 3181 3182 3183 3183 3184 3185 3185 3186 3186 3187 3186 3187 3186 3186 3185 3185 3184 3184 3183 3182 3181 3180 3180 3179 3179 3179 3178 3177 3176 3175 3174 3173 3172 3171 3169
3166 3167 3170 3171 3174 3175 3177 3177 3178 3178 3179 3180 3180 3181 3181 3182 3182 3182 3182 3183 3183 3182 3182 3181 3180 3179 3179 3178 3177 3176 3175 3174 3174 3173 3173 3172 3171 3170 3170 3168 3168 3167 3166
3160 3162 3165 3168 3170 3171 3172 3173 3174 3175 3175 3175 3176 3176 3176 3177 3177 3177 3178 3179 3178 3177 3177 3176 3175 3174 3173 3172 3172 3170 3169 3168 3168 3168 3167 3167 3167 3166 3165 3164 3163 3162 3161
3156 3159 3160 3161 3163 3166 3167 3168 3169 3169 3170 3171 3171 3172 3172 3173 3172 3173 3173 3173 3173 3172 3171 3170 3170 3168 3168 3167 3165 3164 3163 3162 3161 3161 3162 3161 3161 3160 3160 3159 3158 3157 3156
3153 3155 3156 3156 3157 3158 3160 3161 3162 3163 3164 3165 3166 3167 3167 3167 3167 3166 3167 3167 3166 3165 3165 3164 3163 3162 3161 3160 3158 3157 3156 3155 3154 3154 3155 3155 3155 3155 3154 3153 3151 3151 3149
3148 3149 3151 3152 3153 3154 3154 3154 3155 3156 3157 3158 3159 3159 3160 3160 3160 3160 3160 3161 3160 3159 3158 3157 3155 3154 3154 3153 3150 3149 3148 3147 3146 3147 3148 3147 3148 3147 3146 3145 3144 3144 3142
3143 3144 3145 3146 3147 3149 3149 3149 3149 3151 3152 3153 3153 3153 3153 3153 3153 3152 3152 3152 3151 3150 3150 3150 3148 3147 3146 3146 3143 3140 3135 3137 3139 3140 3140 3139 3140 3139 3139 3138 3137 3136 3135
3137 3139 3140 3140 3141 3142 3143 3143 3144 3144 3145 3146 3146 3147 3147 3146 3146 3145 3144 3143 3143 3142 3142 3142 3140 3138 3136 3136 3135 3134 3129 3126 3126 3128 3130 3131 3131 3130 3130 3130 3129 3128 3127
3131 3132 3133 3134 3135 3136 3136 3136 3136 3137 3137 3138 3139 3139 3140 3139 3139 3137 3136 3135 3135 3134 3133 3133 3132 3130 3129 3127 3127 3127 3124 3121 3118 3115 3118 3118 3121 3121 3120 3119 3118 3117 3116
3125 3126 3127 3128 3128 3128 3128 3129 3128 3128 3129 3129 3129 3130 3130 3130 3128 3128 3128 3127 3127 3125 3125 3124 3123 3123 3121 3120 3118 3117 3116 3114 3112 3111 3104 3107 3108 3109 3108 3106 3106 3106 3105
3118 3119 3119 3120 3121 3122 3122 3121 3121 3121 3121 3121 3121 3121 3121 3121 3121 3120 3120 3119 3118 3118 3117 3115 3113 3113 3113 3112 3110 3109 3108 3107 3105 3103 3100 3097 3095 3097 3096 3096 3094 3093 3093